Weather History for KCQX - March, 2012

Change the Weather History Date:

Thursday, March 22, 2012

  Actual Average Record
Temperature  
Mean Temperature 52 °F -  
Max Temperature 59 °F 43 °F 59 °F (1979)
Min Temperature 48 °F 31 °F 18 °F (1988)
Degree Days  
Heating Degree Days 12    
Growing Degree Days 2 (Base 50)    
Moisture  
Dew Point 52 °F    
Average Humidity 94    
Maximum Humidity 100    
Minimum Humidity 84    
Precipitation  
Precipitation 0.00 in - - ()
Sea Level Pressure  
Sea Level Pressure 30.16 in    
Wind  
Wind Speed 9 mph (WSW)    
Max Wind Speed 15 mph    
Max Gust Speed 26 mph    
Visibility 4 miles    
Events Fog    
Averages and records for this station are not official NWS values.
T = Trace of Precipitation, MM = Missing Value Source: NWS Daily Summary

Daily Weather History Graph

Daily Weather History Graph

Search for Another Location

Airport or City:

Trip Planner

Search our weather history database for the weather conditions in past years. The results will help you decide how hot, cold, wet, or windy it might be!

Date:

Astronomy

Mar. 22, 2012 Rise Set
Actual Time 6:39 AM EDT 6:54 PM EDT
Civil Twilight 6:11 AM EDT 7:22 PM EDT
Nautical Twilight 5:38 AM EDT 7:55 PM EDT
Astronomical Twilight 5:05 AM EDT 8:28 PM EDT
Moon 6:16 AM EDT (3/22) 7:17 PM EDT (3/22)
Length of Visible Light 13h 11m
Length of Day
12h 15m
New Moon, 0% of the Moon is Illuminated
Mar 22
New Moon
Mar 30
First Quarter
Apr 6
Full
Apr 13
Last Quarter
Apr 21
New

Hourly Weather History & Observations

Time (EDT) Temp. Dew Point Humidity Pressure Visibility Wind Dir Wind Speed Gust Speed Precip Events Conditions
12:36 AM 50.0 °F 50.0 °F 100% 30.27 in 0.2 mi Variable 5.8 mph - N/A Fog Fog
12:45 AM 50.0 °F 48.2 °F 94% 30.27 in 0.5 mi SW 5.8 mph - N/A Fog Fog
12:52 AM 50.0 °F 48.9 °F 96% 30.27 in 0.5 mi SW 6.9 mph - N/A Fog Fog
1:04 AM 50.0 °F 50.0 °F 100% 30.26 in 0.2 mi WSW 6.9 mph - N/A Fog Fog
1:22 AM 51.8 °F 50.0 °F 94% 30.26 in 0.5 mi SW 4.6 mph - N/A Fog Fog
1:52 AM 48.9 °F 48.0 °F 97% 30.26 in 0.5 mi SW 8.1 mph - N/A Fog Fog
2:52 AM 51.1 °F 50.0 °F 96% 30.24 in 0.5 mi WSW 9.2 mph - N/A Fog Fog
3:52 AM 51.1 °F 50.0 °F 96% 30.23 in 0.5 mi WSW 8.1 mph - N/A Fog Fog
4:52 AM 53.1 °F 52.0 °F 96% 30.22 in 0.5 mi WSW 10.4 mph 19.6 mph N/A Fog Fog
5:00 AM 53.6 °F 51.8 °F 94% 30.22 in 0.2 mi WSW 10.4 mph 19.6 mph N/A Fog Fog
5:37 AM 51.8 °F 51.8 °F 100% 30.22 in 0.5 mi WSW 9.2 mph - N/A Fog Fog
6:04 AM 51.8 °F 51.8 °F 100% 30.22 in 0.5 mi WSW 9.2 mph 16.1 mph N/A Fog Fog
6:52 AM 53.1 °F 52.0 °F 96% 30.23 in 0.5 mi WSW 8.1 mph 21.9 mph N/A Fog Fog
7:00 AM 53.6 °F 51.8 °F 94% 30.23 in 0.2 mi WSW 8.1 mph 17.3 mph N/A Fog Fog
7:38 AM 53.6 °F 51.8 °F 94% 30.23 in 0.5 mi WSW 6.9 mph - N/A Fog Fog
8:52 AM 53.1 °F 52.0 °F 96% 30.22 in 0.8 mi WSW 6.9 mph - N/A   Mist
9:52 AM 52.0 °F 51.1 °F 97% 30.21 in 0.5 mi SW 8.1 mph 17.3 mph N/A Fog Fog
10:28 AM 53.6 °F 53.6 °F 100% 30.20 in 1.0 mi WSW 10.4 mph 19.6 mph N/A   Overcast
10:50 AM 55.4 °F 53.6 °F 94% 30.19 in 3.0 mi SW 10.4 mph 19.6 mph N/A   Overcast
10:52 AM 55.0 °F 54.0 °F 96% 30.19 in 3.0 mi WSW 12.7 mph 20.7 mph N/A   Overcast
11:11 AM 53.6 °F 53.6 °F 100% 30.19 in 2.5 mi WSW 12.7 mph 23.0 mph N/A   Overcast
11:27 AM 55.4 °F 53.6 °F 94% 30.18 in 7.0 mi WSW 10.4 mph 18.4 mph N/A   Overcast
11:48 AM 55.4 °F 53.6 °F 94% 30.17 in 2.5 mi WSW 15.0 mph 25.3 mph N/A   Overcast
11:52 AM 55.9 °F 54.0 °F 93% 30.18 in 4.0 mi WSW 13.8 mph 25.3 mph N/A   Overcast
12:34 PM 57.2 °F 53.6 °F 88% 30.14 in 1.8 mi WSW 13.8 mph 26.5 mph N/A   Overcast
12:41 PM 57.2 °F 55.4 °F 94% 30.14 in 2.5 mi WSW 15.0 mph 26.5 mph N/A   Overcast
12:50 PM 57.2 °F 55.4 °F 94% 30.14 in 4.0 mi WSW 13.8 mph 24.2 mph N/A   Overcast
12:52 PM 57.0 °F 55.0 °F 93% 30.14 in 4.0 mi WSW 12.7 mph 24.2 mph N/A   Overcast
1:52 PM 55.9 °F 52.0 °F 87% 30.12 in 10.0 mi SW 9.2 mph 16.1 mph N/A   Overcast
2:52 PM 57.9 °F 54.0 °F 87% 30.09 in 10.0 mi WSW 11.5 mph 21.9 mph N/A   Mostly Cloudy
3:08 PM 57.2 °F 53.6 °F 88% 30.07 in 10.0 mi SW 13.8 mph 21.9 mph N/A   Partly Cloudy
3:52 PM 57.0 °F 53.1 °F 87% 30.07 in 10.0 mi SW 11.5 mph 21.9 mph N/A   Scattered Clouds
4:52 PM 57.9 °F 53.1 °F 84% 30.05 in 10.0 mi SW 12.7 mph 24.2 mph N/A   Clear
5:52 PM 55.9 °F 52.0 °F 87% 30.05 in 10.0 mi SW 6.9 mph - N/A   Clear
6:52 PM 54.0 °F 51.1 °F 90% 30.06 in 10.0 mi WSW 6.9 mph - N/A   Partly Cloudy
7:06 PM 53.6 °F 51.8 °F 94% 30.05 in 6.0 mi WSW 8.1 mph 17.3 mph N/A   Mostly Cloudy
7:50 PM 53.6 °F 51.8 °F 94% 30.05 in 9.0 mi SW 8.1 mph 19.6 mph N/A   Scattered Clouds
7:52 PM 54.0 °F 52.0 °F 93% 30.05 in 9.0 mi SW 9.2 mph 19.6 mph N/A   Partly Cloudy
8:52 PM 53.1 °F 51.1 °F 93% 30.04 in 10.0 mi SW 8.1 mph - N/A   Clear
10:52 PM 53.1 °F 51.1 °F 93% 30.03 in 10.0 mi WSW 6.9 mph - N/A   Clear
11:52 PM 53.1 °F 51.1 °F 93% 30.01 in 8.0 mi WSW 5.8 mph - N/A   Clear